Afrayias, Greece

12:02 PM EET on February 20, 2017 (GMT +0200)
Kefallinia

Weather History for LGKF - March, 2014

Change the Weather History Date:

Wednesday, March 12, 2014

  Actual Average Record
Temperature  
Mean Temperature 56 °F -  
Max Temperature 62 °F 60 °F 64 °F (2007)
Min Temperature 50 °F 50 °F 39 °F (2005)
Degree Days  
Heating Degree Days 9    
Growing Degree Days 6 (Base 50)    
Moisture  
Dew Point 37 °F    
Average Humidity 52    
Maximum Humidity 66    
Minimum Humidity 31    
Precipitation  
Precipitation 0.00 in - - ()
Sea Level Pressure  
Sea Level Pressure 30.21 in    
Wind  
Wind Speed 5 mph ()    
Max Wind Speed 16 mph    
Max Gust Speed -    
Visibility 6.2 miles    
Events      
Averages and records for this station are not official NWS values.
T = Trace of Precipitation, MM = Missing Value Source: Averaged Metar Reports

Daily Weather History Graph

Daily Weather History Graph

Search for Another Location

Airport or City:

Trip Planner

Search our weather history database for the weather conditions in past years. The results will help you decide how hot, cold, wet, or windy it might be!

Date:

Astronomy

Mar. 12, 2014 Rise Set
Actual Time 6:54 AM EET 6:42 PM EET
Civil Twilight 6:27 AM EET 7:08 PM EET
Nautical Twilight 5:57 AM EET 7:38 PM EET
Astronomical Twilight 5:26 AM EET 8:09 PM EET
Moon 2:58 PM EET (3/12) 4:11 AM EET (3/12)
Length of Visible Light 12h 40m
Length of Day
11h 47m
Waxing Gibbous, 83% of the Moon is Illuminated
Mar 12
Waxing Gibbous
Mar 16
Full
Mar 24
Last Quarter
Mar 30
New
Apr 7
First Quarter

Hourly Weather History & Observations

Time (EET) Temp. Dew Point Humidity Pressure Visibility Wind Dir Wind Speed Gust Speed Precip Events Conditions
12:20 AM 50.0 °F 39.2 °F 66% 30.15 in - Variable 2.3 mph - N/A   Unknown
12:50 AM 50.0 °F 39.2 °F 66% 30.15 in - Variable 1.2 mph - N/A   Unknown
1:20 AM 51.8 °F 39.2 °F 62% 30.15 in - Variable 2.3 mph - N/A   Unknown
1:50 AM 51.8 °F 39.2 °F 62% 30.15 in - Variable 3.5 mph - N/A   Unknown
2:20 AM 51.8 °F 39.2 °F 62% 30.15 in - East 4.6 mph - N/A   Unknown
2:50 AM 51.8 °F 39.2 °F 62% 30.15 in - NNE 4.6 mph - N/A   Unknown
3:20 AM 51.8 °F 39.2 °F 62% 30.15 in - North 5.8 mph - N/A   Unknown
3:50 AM 51.8 °F 39.2 °F 62% 30.15 in - Variable 3.5 mph - N/A   Unknown
4:20 AM 51.8 °F 39.2 °F 62% 30.15 in - ENE 5.8 mph - N/A   Unknown
4:50 AM 53.6 °F 35.6 °F 51% 30.18 in - NNE 5.8 mph - N/A   Unknown
5:20 AM 51.8 °F 35.6 °F 54% 30.18 in - East 5.8 mph - N/A   Unknown
5:50 AM 51.8 °F 33.8 °F 50% 30.18 in - ENE 5.8 mph - N/A   Unknown
6:20 AM 51.8 °F 33.8 °F 50% 30.18 in - NNE 5.8 mph - N/A   Unknown
6:50 AM 51.8 °F 33.8 °F 50% 30.18 in - NNW 5.8 mph - N/A   Unknown
7:20 AM 53.6 °F 32.0 °F 44% 30.21 in - North 4.6 mph - N/A   Unknown
7:50 AM 51.8 °F 33.8 °F 50% 30.21 in 6.2 mi North 8.1 mph - N/A   Scattered Clouds
8:50 AM 55.4 °F 35.6 °F 47% 30.21 in 6.2 mi North 6.9 mph - N/A   Partly Cloudy
9:50 AM 59.0 °F 35.6 °F 42% 30.24 in 6.2 mi Calm Calm - N/A   Partly Cloudy
10:50 AM 59.0 °F 35.6 °F 42% 30.27 in 6.2 mi Calm Calm - N/A   Partly Cloudy
11:20 AM 60.8 °F 30.2 °F 31% 30.24 in - North 4.6 mph - N/A   Unknown
11:50 AM 60.8 °F 33.8 °F 36% 30.24 in - NW 9.2 mph - N/A   Unknown
12:20 PM 60.8 °F 35.6 °F 39% 30.24 in - NW 12.7 mph - N/A   Unknown
12:50 PM 60.8 °F 35.6 °F 39% 30.24 in - NW 12.7 mph - N/A   Unknown
1:20 PM 60.8 °F 35.6 °F 39% 30.24 in - NNW 11.5 mph - N/A   Unknown
1:50 PM 60.8 °F 37.4 °F 42% 30.24 in 6.2 mi NNW 12.7 mph - N/A   Partly Cloudy
2:50 PM 62.6 °F 35.6 °F 37% 30.21 in 6.2 mi NNW 15.0 mph - N/A   Partly Cloudy
3:50 PM 60.8 °F 39.2 °F 45% 30.24 in 6.2 mi NNW 16.1 mph - N/A   Partly Cloudy
4:50 PM 59.0 °F 41.0 °F 51% 30.24 in 6.2 mi NNW 16.1 mph - N/A   Partly Cloudy
5:50 PM 57.2 °F 42.8 °F 59% 30.24 in 6.2 mi NNW 15.0 mph - N/A   Partly Cloudy
6:50 PM 55.4 °F 39.2 °F 54% 30.27 in 6.2 mi NNW 13.8 mph - N/A   Partly Cloudy
7:50 PM 53.6 °F 39.2 °F 58% 30.27 in 6.2 mi NNW 11.5 mph - N/A   Partly Cloudy
8:50 PM 51.8 °F 39.2 °F 62% 30.27 in 6.2 mi North 9.2 mph - N/A   Partly Cloudy
9:20 PM 55.4 °F 39.2 °F 54% 30.24 in - North 4.6 mph - N/A   Unknown
9:50 PM 53.6 °F 37.4 °F 54% 30.24 in - Variable 2.3 mph - N/A   Unknown
10:20 PM 53.6 °F 39.2 °F 58% 30.24 in - Variable 2.3 mph - N/A   Unknown
10:50 PM 53.6 °F 37.4 °F 54% 30.24 in - Variable 3.5 mph - N/A   Unknown
11:20 PM 51.8 °F 39.2 °F 62% 30.24 in - Variable 3.5 mph - N/A   Unknown
11:50 PM 53.6 °F 35.6 °F 51% 30.24 in - Variable 1.2 mph - N/A   Unknown